Other Public Products
Issued by NWS Grand Forks, ND

Home | Current Version | Previous Version | Text Only | Print | Product List | Glossary On
Versions: 1 2 3 4 5 6 7 8 9 10 11 12 13 14 15 16 17 18 19 20 21 22 23 24 25 26 27 28 29 30 31 32 33 34 35 36 37 38 39 40 41 42 43 44 45 46 47 48 49 50
000
FPUS83 KFGF 220810
OPUFGF
PRAIRIE TO PINES WEATHER ROUNDUP
NATIONAL WEATHER SERVICE EASTERN NORTH DAKOTA/GRAND FORKS ND
300 AM CDT FRI AUG 22 2014

 **SATELLITE DATA USED TO AUGMENT SKY COVER AT AUTOMATED STATIONS**
 *****  WEATHER ACROSS EASTERN NORTH DAKOTA  *****

CITY           SKY/WX    TMP DP  RH WIND       PRES   REMARKS
GRAND FORKS    MOCLDY    68  66  93 N6        29.88S
GRAND FORKS AF CLOUDY    67  67 100 N10       29.90S
GRAND CITY NWS   N/A     59 N/A N/A N2          N/A
BUXTON         NOT AVBL
DEVILS LAKE    CLOUDY    66  61  82 N15       29.94R
FARGO          FOG       65  64  97 NE3       29.88S VSB 1/2
WAHPETON ARPT  CLOUDY    68  64  88 CALM      29.88S VSB 1/2
$$

 *****  WEATHER ACROSS CENTRAL AND WESTERN NORTH DAKOTA  *****

CITY           SKY/WX    TMP DP  RH WIND       PRES   REMARKS
JAMESTOWN      PTCLDY    65  63  93 N8        29.93R
BISMARCK       LGT RAIN  66  64  93 W7        30.00R
MINOT          CLOUDY    62  60  93 N13       30.01R
MINOT AFB      CLOUDY    62  62  99 N7        30.01R
GARRISON         N/A     64  62  93 NE7       30.01R
WILLISTON      CLOUDY    63  58  83 NE7       30.04R
DICKINSON      LGT RAIN  62  60  93 NE3       30.01R
HETTINGER      LGT RAIN  61  59  93 NE6       30.05S
$$

 *****  OTHER OBSERVATIONS NORTHEAST NORTH DAKOTA  *****

CITY           SKY/WX    TMP DP  RH WIND       PRES   REMARKS
WALHALLA         N/A     66  66 100 N14       29.94S
LANGDON        CLOUDY    63  63 100 N13       29.97R FOG
CAVALIER       CLOUDY    66  64  94 N9        29.92S
GRAFTON        CLOUDY    66  66 100 N7        29.90S
CANDO          CLOUDY    63  63 100 N10       29.98S
FORT TOTTEN    NOT AVBL
ROLLA          CLOUDY    59  59 100 N9        30.02R FOG
RUGBY          PTSUNNY   63  63 100 NE9       29.99R
 ***** THE ABOVE OBSERVATIONS ARE NON NWS ARE NOT QUALITY
        CONTROLLED AND MAY MIS-REPORT RAIN FOR SNOW...
$$

 *****  OTHER OBSERVATIONS SOUTHEAST NORTH DAKOTA *****

CITY           SKY/WX    TMP DP  RH WIND       PRES   REMARKS
COOPERSTOWN    NOT AVBL
VALLEY CITY    FAIR      64  64 100 N9        29.92S
OAKES          NOT AVBL
GWINNER        SUNNY     68  68 100 N5        29.91S
SHEYENNE NWR     N/A     65  65  99 N2        29.95S
BUFFALO        NOT AVBL
WYNDMERE       NOT AVBL
 ***** THE ABOVE OBSERVATIONS ARE NON NWS ARE NOT QUALITY
       CONTROLLED AND MAY MIS-REPORT RAIN FOR SNOW...
$$

  *****  WEATHER ACROSS NORTHERN MINNESOTA  *****

CITY           SKY/WX    TMP DP  RH WIND       PRES   REMARKS
FLAG ISLAND    CLOUDY    66  64  94 CALM      29.92R
WARROAD        CLOUDY    66  64  94 E5        29.92S
ROSEAU         PTCLDY    66  61  82 CALM      29.91S
HALLOCK        MOCLDY    66  64  94 N6        29.91R
THF RVR FALLS  CLOUDY    68  66  94 E5        29.90R
HALSTAD          N/A     64  63  94 W2          N/A
FOSSTON        CLOUDY    66  63  88 CALM      29.91S
BAUDETTE       CLOUDY    65  63  93 E5        29.92R
WASKISH        CLOUDY    66  64  94 CALM      29.92S
CROOKSTON      FOG       66  64  94 CALM      29.90R VSB 1/2
$$
  *****  WEATHER ACROSS CENTRAL AND WEST MINNESOTA  *****

CITY           SKY/WX    TMP DP  RH WIND       PRES   REMARKS
BEMIDJI        CLOUDY    66  65  96 E6        29.92S
PARK RAPIDS    CLOUDY    67  67 100 N3        29.92R FOG
WADENA         FOG       66  66 100 CALM      29.90S VSB 1/2
DETROIT LAKES  CLOUDY    68  68 100 CALM      29.92R FOG
MOORHEAD       FOG       66  66 100 CALM      29.89S VSB 1/4
FERGUS FALLS   MOCLDY    68  66  94 CALM      29.89R
ELBOW LAKE     FAIR      67  67  99 CALM      29.89S FOG
MORRIS MN      FOG       66  64  94 CALM      29.88R VSB<1/4
STAPLES        CLOUDY    66  64  94 CALM      29.90S FOG
WHEATON        FOG       63  63 100 W3        29.90S VSB 1/2
$$
  *****  WEATHER ELSEWHERE ACROSS MINNESOTA  *****

CITY           SKY/WX    TMP DP  RH WIND       PRES   REMARKS
DULUTH         FOG       62  60  93 E7        29.91S VSB 3/4
INTRNTL FALLS  CLOUDY    63  60  90 SE5       29.94R
ELY            RAIN      61  59  94 CALM      29.95R
CLOQUET        FOG       61  61 100 E7        29.91S VSB 1
BRAINERD       CLOUDY    63  63 100 NE3       29.91R FOG
HIBBING        CLOUDY    65  60  84 E5        29.93R
ALEXANDRIA     CLOUDY    69  67  93 CALM      29.91S
SAINT CLOUD    FOG       72  70  93 N5        29.87S VSB 1/2
MINNEAPOLIS    PTCLDY    72  71  97 CALM      29.85S
$$

  *****  WEATHER ACROSS SOUTH DAKOTA  *****

CITY           SKY/WX    TMP DP  RH WIND       PRES   REMARKS
SIOUX FALLS    CLEAR     68  66  93 CALM      29.90R
BROOKINGS      NOT AVBL
WATERTOWN      FOG       63  63 100 CALM      29.92R VSB 1/2
HURON          CLEAR     63  62  97 CALM      29.91S
SISSETON         N/A     64  64 100 CALM      29.88S
ABERDEEN       CLEAR     63  63 100 N6        29.91R
MITCHELL       CLEAR     65  64  97 NW5       29.91F
PIERRE         PTCLDY    66  64  93 SE10      29.91S
MOBRIDGE       LGT RAIN  66  64  93 NW12      29.98R
RAPID CITY     MOCLDY    63  60  90 N16       30.01R
$$

  *****  SOME WEATHER IN NEARBY STATES *****

CITY           SKY/WX    TMP DP  RH WIND       PRES   REMARKS
GLASGOW MT     CLOUDY    60  57  89 NE12      30.07S
GREAT FALLS MT CLOUDY    52  48  87 NE9       30.13F
CHEYENNE WY    LGT RAIN  59  47  64 VRB3      30.18F
SCOTTSBLUFF NE CLOUDY    65  53  65 NW3       30.05R
OMAHA NE       CLOUDY    76  71  85 CALM      29.87R
DES MOINES IA  CLOUDY    80  73  79 W22G31    29.89R THUNDER
DAVENPORT IA   CLOUDY    75  73  93 S9        29.87S THUNDER
CHICAGO IL     TSTM      74  70  87 W3G18     29.91R FOG
EAU CLAIRE WI  CLEAR     71  71 100 CALM      29.83F
LA CROSSE WI   CLEAR     74  71  91 S6        29.84F
$$

  *****  SOME NATIONAL WEATHER *****

CITY           SKY/WX    TMP DP  RH WIND       PRES   REMARKS
LA GUARDIA NY  CLOUDY    68  64  87 S7        30.00F
RALEIGH NC     PTCLDY    73  70  90 CALM      30.01F
ATLANTA GA     CLEAR     74  70  87 W6        30.10F
NEW ORLEANS LA PTCLDY    75  72  90 W5        30.07S
OKLAHOMA CITY  PTCLDY    78  65  63 S8        29.96R
ALBUQUERQUE NM MOCLDY    71  47  42 S6        30.13S
SALT LAKE CITY MOCLDY    63  53  70 SW6       30.02R
LOS ANGELES CA PTCLDY    68  62  81 W6        29.95F
BOISE ID       PTCLDY    67  39  35 SE9       29.87F
SEATTLE WA     CLEAR     59  51  75 CALM      30.00S
$$

*** WEATHER ACROSS MANITOBA...SASKATCHEWAN AND ONTARIO ***
                ***ONTARIO***

CITY           SKY/WX    TMP DP  RH WIND       PRES   REMARKS
GERALDTON      PTCLDY    61  61 100 CALM      30.01R
THUNDER BAY    LGT RAIN  59  59 100 E7        29.97F
SIOUX LOOKOUT  PTCLDY    63  61  94 SE3       29.97R
TORONTO        MOCLDY    64  63  94 N7        29.98F
BIG TROUT LK   MOCLDY    64  61  88 S6        29.94F
PICKLE LAKE    NOT AVBL
DRYDEN         CLOUDY    64  63  94 VRB2      29.96R
KENORA         CLOUDY    64  63  94 E6        29.95S
$$
                *** MANITOBA***

CITY           SKY/WX    TMP DP  RH WIND       PRES   REMARKS
BRANDON        CLOUDY    61  59  94 N7        30.02R
DAUPHIN        CLOUDY    59  57  94 N7        30.04S
ISLAND LAKE    DRIZZLE   59  57  94 N7        29.98R
PILOT MOUND      N/A     61  59  94 N8          N/A
THE PAS        CLOUDY    59  52  77 N10       30.10R
THOMPSON       MOCLDY    52  52 100 N7        30.11R
WINNIPEG       CLOUDY    64  63  94 N9        29.94S
LYNN LAKE      CLOUDY    50  48  93 MISG      30.18R
CHURCHILL      CLOUDY    48  45  87 N20G30    30.08R
GILLAM         CLOUDY    48  48 100 N14       30.06
$$
                ***SASKATCHEWAN***

CITY           SKY/WX    TMP DP  RH WIND       PRES   REMARKS
ESTEVAN        MOCLDY    61  57  88 E7        30.08R
KINDERSLEY     MOCLDY    50  46  87 NE8       30.22R
LLOYDMINSTER   CLOUDY    50  43  76 NW5       30.26R
PRINCE ALBERT  CLOUDY    54  50  87 N5        30.19S
REGINA         CLOUDY    59  55  88 N9        30.11S



USA.gov is the U.S. government's official web portal to all federal, state and local government web resources and services.